Regional Weather Roundup
Issued by NWS

Home | Current Version | Previous Version | Text Only | Print | Product List | Glossary On
Versions: 1 2 3 4 5 6 7 8 9 10 11 12 13 14 15 16 17 18 19 20 21 22 23 24 25 26 27 28 29 30 31 32 33 34 35 36 37 38 39 40 41 42 43 44 45 46 47 48 49 50
000
ASUS45 KCYS 061010
RWRWY

WYOMING REGIONAL WEATHER ROUNDUP
NATIONAL WEATHER SERVICE CHEYENNE WY
400 AM MDT WED MAY 06 2015

NOTE:  "FAIR" INDICATES FEW OR NO CLOUDS BELOW 12,000 FEET
WITH NO SIGNIFICANT WEATHER AND/OR OBSTRUCTIONS TO VISIBILITY.

WYZ001-061100-
YELLOWSTONE NATIONAL PARK

CITY           SKY/WX    TMP DP  RH WIND       PRES   REMARKS
LK YELLOWSTONE   N/A     34  31  88 CALM      29.90S
W YELLOWSTONE  NOT AVBL

$$
WYZ002>013-054>058-071-098>099-061100-
NORTHERN WYOMING

CITY           SKY/WX    TMP DP  RH WIND       PRES   REMARKS
JACKSON        FAIR      37  37 100 CALM      29.84S
CODY           CLOUDY    50  43  76 N12       29.78S
GREYBULL       LGT RAIN  54  49  83 NW15      29.71R
WORLAND        LGT RAIN  54  49  83 NW8       29.72S
SHERIDAN       MOCLDY    54  45  71 NW18      29.71S
BUFFALO        FAIR      46  42  86 NW5       29.72F
GILLETTE       CLOUDY    52  48  86 S12       29.71S
HULETT         CLOUDY    55  46  71 SW3       29.74R
NEWCASTLE      CLOUDY    52  46  82 SE8       29.74F

$$
WYZ014>020-022>026-101>103-061100-
CENTRAL WYOMING

CITY           SKY/WX    TMP DP  RH WIND       PRES   REMARKS
BIG PINEY      FAIR      39  35  86 NW7       29.82F WCI  34
PINEDALE       PTSUNNY   39  37  93 NW7       29.83S WCI  34
DUBOIS         FAIR      43  34  70 NW10      29.81S
LANDER         LGT RAIN  50  46  86 SW7       29.75S
RIVERTON       LGT RAIN  52  45  77 E7        29.74F
CASPER         CLOUDY    45  43  93 NW3       29.72R
DOUGLAS        CLOUDY    50  49  96 SE10      29.72S

$$
WYZ021-027>030-104>119-061100-
SOUTHERN WYOMING

CITY           SKY/WX    TMP DP  RH WIND       PRES   REMARKS
EVANSTON       CLOUDY    43  42  97 SW5       29.87  FOG
KEMMERER       CLOUDY    43  41  93 W10       29.85S
FORT BRIDGER   CLOUDY    46  45  93 W10       29.88S
ROCK SPRINGS   CLOUDY    46  41  82 W14       29.80F
DIXON          CLOUDY    48  45  88 CALM      29.83S
RAWLINS        FAIR      41  38  89 N3        29.78F
SARATOGA       CLOUDY    43  41  93 NW5       29.80S
LARAMIE        FAIR      41  38  89 CALM      29.75F
CHEYENNE       RAIN      47  45  93 N8        29.72F FOG
TORRINGTON     LGT RAIN  51  50  96 E7        29.69F
PINE BLUFFS    DRIZZLE   48  48 100 NE5       29.70F

$$



USA.gov is the U.S. government's official web portal to all federal, state and local government web resources and services.